Wind_Speed
35 34 33 35 37 38 39 39 38 38 39 39 39 40 41 42 41 38 40 42 40 42 43 43 44 45 47 47 44 42 40 40 40 41 42 42 42 42 43 43 42 41 40 40 41 41 41 41 41 41 40 40 40 40 39 38 38 38 39 39 39 38 39 41 41 42 44 45 47 49 49 51 52 52 52 51 50 51 51 52 52 53 53 54 54 54
35 34 34 37 37 37 38 38 38 39 39 41 41 42 42 42 42 41 43 43 42 43 45 46 47 47 48 48 46 46 45 44 44 43 43 43 44 44 44 45 46 45 44 42 42 43 43 43 43 43 43 43 43 42 41 40 40 40 40 39 40 39 38 40 41 41 42 44 46 47 48 50 52 52 53 53 53 54 54 54 55 55 56 56 57 56
35 35 35 37 37 37 38 38 39 40 41 42 43 44 43 43 44 44 45 45 44 45 45 47 49 49 50 49 48 49 48 48 48 47 47 46 47 47 46 47 48 49 48 47 46 45 45 45 45 46 46 46 46 46 45 43 42 42 42 41 41 41 40 39 41 41 42 44 45 46 47 49 50 51 52 52 53 55 55 56 57 58 57 57 59 58
35 36 37 37 37 38 38 39 40 41 43 43 43 44 44 45 47 48 48 48 47 47 47 49 51 52 52 51 51 51 50 50 51 50 50 49 50 50 49 49 49 50 51 50 49 49 48 48 48 49 49 49 49 49 48 47 46 45 44 44 44 44 43 42 43 43 43 45 46 46 47 48 48 48 49 51 52 53 55 56 57 58 59 59 60 59
35 37 37 38 38 39 40 41 42 43 44 44 44 45 45 47 49 50 50 51 51 51 51 52 53 54 54 54 53 52 53 54 53 53 52 52 52 52 52 52 51 52 52 52 52 52 52 52 52 52 52 53 53 53 52 51 50 49 48 47 47 48 48 47 47 46 46 47 47 47 48 48 48 47 48 49 49 50 53 54 56 58 58 57 58 58
35 37 38 39 40 41 42 43 43 44 45 46 47 47 48 50 51 51 53 54 54 54 54 55 57 58 58 56 55 54 56 57 57 57 56 55 55 55 55 55 54 54 54 54 55 55 55 56 56 57 57 56 56 56 56 55 54 52 52 51 51 51 51 51 51 50 50 51 51 50 50 49 49 48 48 48 48 50 51 53 55 57 57 56 57 59
37 39 40 40 42 43 44 44 45 46 48 48 49 50 51 52 52 53 54 55 55 55 55 57 58 60 60 59 58 56 57 59 59 59 59 59 59 59 59 59 58 58 57 57 56 57 58 58 58 59 59 58 58 58 58 58 58 57 56 54 54 54 54 55 55 54 54 54 55 54 53 52 51 50 50 49 50 51 52 52 54 56 56 57 58 59
39 41 42 43 44 45 46 46 47 48 49 50 51 52 53 53 54 54 54 55 56 56 56 56 58 61 60 60 60 58 59 60 60 60 60 61 61 62 62 62 61 60 59 58 57 57 58 58 59 59 59 59 60 61 61 61 61 60 59 58 57 57 57 57 58 58 57 58 58 58 57 56 54 53 52 52 52 53 54 53 53 54 55 56 57 59
41 43 45 45 46 47 47 48 49 50 51 52 52 53 54 54 54 54 55 56 56 57 58 55 56 60 60 60 60 59 60 60 59 59 59 60 60 61 62 62 62 61 60 59 57 56 55 55 57 59 60 60 61 62 62 62 62 62 61 61 60 60 59 60 60 61 61 61 61 61 60 59 58 57 55 55 55 56 56 56 55 55 55 56 57 58
43 45 47 48 48 48 49 49 50 51 51 52 52 53 53 54 54 54 55 56 56 59 60 55 55 59 60 60 61 61 61 60 59 59 59 59 59 60 61 62 62 62 62 61 58 55 53 53 54 57 59 61 62 63 64 65 64 64 64 64 64 64 63 63 63 63 64 64 64 64 63 63 62 60 59 58 58 58 59 58 58 57 56 57 58 57
44 45 47 48 48 48 48 49 50 51 52 52 53 55 56 56 57 57 57 58 59 61 60 55 54 57 58 60 61 60 60 59 58 58 59 59 59 59 60 61 62 63 64 64 62 59 58 57 57 58 60 61 63 65 66 67 68 69 69 69 69 69 67 66 65 65 66 67 67 67 67 66 65 63 62 62 61 61 62 62 61 60 58 58 59 58
45 45 46 46 46 47 49 50 51 52 53 54 54 56 58 57 57 58 59 59 61 61 60 57 56 57 59 61 62 61 60 59 58 58 58 59 59 60 60 61 62 63 64 65 65 65 64 63 61 61 62 64 64 66 68 70 72 73 74 73 73 73 71 70 68 68 68 69 69 69 69 69 68 67 66 65 64 64 65 65 64 63 62 61 61 60
45 46 47 48 48 49 51 52 54 55 55 55 55 55 57 57 57 57 58 59 60 60 60 60 59 59 61 63 62 61 60 58 57 58 58 59 60 60 60 61 61 62 63 64 66 67 67 67 65 64 64 65 65 66 67 70 72 74 76 76 75 75 74 73 72 72 72 72 72 71 71 70 70 69 69 69 68 68 68 68 68 67 66 65 64 63
46 48 51 53 53 52 52 53 54 55 55 55 56 56 56 57 57 58 59 60 61 60 59 61 62 62 63 64 62 60 60 59 58 59 59 59 60 60 61 62 62 63 63 64 65 66 68 68 68 67 66 66 65 65 66 66 68 70 73 75 76 76 76 74 74 75 76 76 75 74 73 73 72 72 72 72 72 72 71 71 71 70 70 69 67 66
49 51 52 53 53 51 51 52 53 54 54 55 56 56 57 57 57 59 60 61 63 62 61 62 65 64 62 63 62 61 61 60 60 60 60 61 61 62 62 63 63 64 64 65 65 66 67 68 69 69 68 67 66 66 66 65 65 66 68 71 73 75 76 76 75 75 76 77 77 77 76 76 76 76 76 76 76 76 75 75 74 74 73 73 71 70
49 49 50 52 51 49 50 51 52 54 56 57 58 58 59 58 57 59 61 62 63 64 64 63 64 64 63 64 64 63 64 63 63 63 62 62 63 63 64 64 64 65 65 65 65 66 66 67 68 68 69 69 68 67 67 66 65 66 67 68 70 73 75 77 78 77 77 76 75 76 77 78 78 78 77 77 78 79 79 78 77 77 77 76 75 74
51 49 47 51 53 51 52 54 54 56 57 59 59 59 59 59 59 60 62 62 62 64 66 63 63 65 64 65 66 67 68 67 65 65 63 63 64 64 64 65 65 65 65 65 66 66 66 67 67 68 68 69 69 69 69 68 68 67 67 67 69 71 74 77 80 81 81 79 78 77 77 77 77 76 77 77 78 79 80 81 81 80 79 79 78 77
55 53 49 51 56 55 56 58 57 58 60 60 60 61 61 61 60 59 60 62 62 64 66 63 62 63 59 59 65 68 68 68 66 65 65 64 64 64 64 65 65 66 66 66 67 67 67 68 68 68 68 69 69 70 70 71 71 70 70 69 69 70 72 74 77 81 83 83 83 83 81 79 76 75 75 76 77 78 79 81 82 82 81 81 80 80
57 59 56 54 58 59 59 61 62 62 64 64 64 63 62 62 62 60 58 59 60 63 67 66 64 63 61 62 66 67 66 66 66 66 66 66 65 65 65 65 66 66 67 67 68 68 69 69 69 69 69 69 70 70 71 72 72 73 73 73 72 72 72 73 74 77 81 84 86 87 85 83 81 79 77 77 77 78 79 79 80 81 82 82 82 81
58 62 62 59 59 62 62 63 64 63 63 64 65 65 64 64 64 63 62 62 63 64 66 66 62 62 65 65 62 63 63 63 66 67 67 67 67 67 67 67 67 67 68 68 68 69 69 70 70 70 70 71 71 71 72 72 73 73 74 75 75 74 74 74 74 75 78 81 84 86 86 86 86 85 84 82 80 80 79 79 80 81 81 82 83 84
59 62 66 64 62 62 61 61 62 62 62 63 65 65 65 66 66 65 65 65 65 65 63 61 56 54 58 57 55 60 64 65 67 67 67 68 68 68 68 68 69 69 70 70 70 71 71 71 72 72 72 73 74 74 74 74 74 74 75 75 75 76 76 76 75 75 76 78 80 82 84 85 87 88 89 88 86 84 82 80 80 81 82 83 84 85
61 62 65 66 65 63 62 61 62 63 64 65 66 67 66 68 67 65 65 63 61 61 59 57 56 55 59 61 62 65 67 66 67 66 67 67 67 68 69 69 70 70 71 72 72 72 72 73 73 74 74 75 76 76 76 76 75 75 74 74 75 76 76 76 76 76 77 77 78 79 80 82 83 85 87 88 88 88 87 85 83 82 82 83 84 85
62 63 66 68 68 67 66 66 67 68 69 70 70 69 67 67 65 63 64 62 59 59 59 59 60 62 64 65 63 62 62 62 63 63 65 66 67 68 70 71 72 72 73 74 74 75 75 75 76 76 76 75 76 76 76 76 75 75 74 74 74 75 76 76 76 76 76 76 76 77 78 79 79 81 83 85 86 88 89 90 88 87 85 84 84 85
63 64 67 70 71 71 70 71 71 72 72 71 67 64 62 60 60 61 63 61 60 60 60 58 59 59 59 59 58 57 58 59 60 62 64 66 68 69 70 71 72 72 72 73 73 74 74 75 75 75 74 74 74 74 74 75 75 76 76 75 75 75 75 76 76 76 75 74 74 75 76 76 77 77 78 80 83 85 87 90 92 92 91 89 87 86
64 64 67 72 76 77 77 75 74 72 68 63 56 53 54 54 57 62 65 64 63 62 57 52 51 53 53 55 58 59 60 60 61 63 64 65 66 66 67 68 68 69 69 69 70 71 72 72 73 74 74 74 75 76 76 76 76 76 76 76 76 75 74 75 75 75 75 74 74 74 74 75 75 76 76 76 78 80 82 86 90 94 95 95 93 90
65 66 69 74 78 81 80 76 71 65 58 51 46 47 52 56 59 62 64 63 61 60 55 50 51 54 54 57 60 61 62 62 62 62 62 62 63 64 65 67 67 68 69 69 69 70 71 72 73 74 75 75 76 76 77 77 77 77 76 76 76 75 75 75 75 75 75 75 75 75 74 74 74 75 75 75 75 76 77 79 83 88 93 97 98 96
69 70 72 76 79 80 78 72 64 55 49 46 46 48 53 55 56 58 59 57 57 57 57 54 55 57 56 57 60 61 62 61 60 60 60 60 60 62 64 66 67 68 68 69 69 70 70 71 72 73 73 74 75 75 76 77 78 78 78 77 77 76 76 76 75 75 76 76 75 75 75 75 74 74 74 74 75 75 75 76 77 80 84 90 95 98
73 75 77 79 80 80 76 67 58 50 45 44 47 50 53 53 53 52 52 52 52 54 56 56 56 57 59 60 63 64 64 64 63 63 64 64 65 67 69 71 72 73 73 73 74 74 75 75 76 76 76 77 77 77 78 79 80 81 81 80 79 78 78 78 77 76 75 76 76 76 76 76 75 74 74 74 74 74 75 75 75 76 77 80 85 90
76 79 82 82 83 81 71 59 52 48 45 45 49 52 53 53 52 50 48 48 51 53 56 57 58 59 60 62 64 65 65 66 67 68 69 70 71 72 74 75 77 77 77 77 78 79 79 80 80 81 81 81 82 82 83 83 84 85 84 84 84 83 82 81 79 78 76 76 76 76 77 76 76 75 75 74 74 74 74 75 75 75 75 76 78 81
80 83 84 83 83 76 62 52 50 47 44 46 49 51 51 50 50 49 49 51 54 55 56 57 57 57 57 59 60 61 61 63 66 67 68 70 71 72 73 74 75 76 77 77 77 78 79 80 81 82 83 84 85 86 86 87 88 88 88 87 87 87 86 85 83 81 79 77 76 76 77 77 76 76 75 75 75 75 75 75 75 75 76 76 77 78
82 86 85 82 80 70 57 51 48 42 42 46 47 47 47 49 49 50 51 54 55 56 55 55 56 55 54 55 56 58 60 63 65 66 67 68 69 71 73 74 76 77 79 79 78 78 79 80 81 82 84 85 86 87 88 89 91 91 90 89 89 89 89 88 87 85 83 80 78 77 76 76 76 76 76 75 75 76 76 75 76 76 76 77 77 78
84 87 86 80 75 66 56 50 46 42 43 46 46 45 47 49 50 50 50 51 53 54 54 54 55 55 55 56 58 60 62 64 66 67 69 70 71 73 76 78 80 82 84 85 85 85 85 85 85 86 86 86 87 88 89 90 91 91 90 90 91 91 91 90 90 88 86 83 81 79 78 76 76 76 76 76 75 75 75 76 76 76 77 77 78 78
85 88 85 77 70 64 55 49 48 47 46 45 44 46 47 48 48 48 47 47 48 51 53 54 56 58 59 60 61 63 64 65 67 68 70 72 73 75 77 80 82 85 86 87 88 89 88 88 87 86 86 85 84 85 86 86 87 87 86 87 89 90 91 91 91 90 88 86 83 82 80 78 77 76 76 76 75 75 75 75 75 76 76 77 77 78
85 86 84 73 64 60 54 51 51 51 49 46 45 47 47 47 48 49 48 48 47 49 52 55 56 58 59 60 61 63 65 66 67 68 69 72 73 73 74 76 77 79 80 81 82 82 81 81 80 79 78 77 76 76 76 76 76 76 76 77 80 83 85 87 88 88 88 87 85 83 82 80 79 77 76 75 75 75 74 74 75 75 76 76 77 78
85 86 83 73 62 57 54 54 55 55 52 50 49 48 47 48 49 50 50 47 46 48 50 53 55 56 57 58 60 62 64 64 65 64 65 68 69 67 67 68 68 69 70 71 72 72 71 70 69 68 66 66 66 66 65 65 64 64 64 65 67 70 73 77 80 82 83 83 82 82 81 81 80 78 77 75 74 74 73 73 74 74 75 76 76 77
84 85 83 75 65 59 57 56 57 56 54 53 51 49 49 49 48 50 51 47 45 48 50 52 54 55 56 58 59 61 62 62 61 60 60 63 64 62 61 62 62 62 63 64 64 64 63 62 60 59 58 59 58 58 58 57 55 54 54 55 57 58 60 64 67 70 73 74 74 75 75 76 76 76 75 73 72 71 71 71 71 72 73 74 74 75
82 83 82 77 68 61 59 58 56 56 55 54 52 51 51 51 51 54 56 53 50 51 53 54 56 56 57 58 59 59 61 61 59 57 56 57 60 59 58 57 58 58 57 57 57 57 56 55 54 54 55 55 55 54 53 51 49 47 47 48 49 49 50 53 55 58 61 63 63 64 65 67 68 69 68 67 66 66 66 67 67 68 69 70 71 72
80 80 80 76 68 61 60 59 58 57 56 54 53 52 52 52 52 53 56 54 52 53 55 55 56 56 56 58 58 59 60 61 59 57 56 56 56 57 56 55 54 54 53 52 52 52 52 52 52 51 51 51 50 49 48 45 44 43 42 41 42 43 44 45 46 48 50 52 53 54 56 57 59 60 60 60 60 60 61 62 63 64 65 66 67 68
78 78 77 74 69 63 60 60 60 59 58 55 55 55 53 53 53 53 54 52 50 51 53 53 54 55 56 57 58 58 60 61 60 58 57 57 56 55 55 54 53 53 52 50 50 50 49 49 48 47 46 46 46 44 43 41 40 39 38 37 37 37 38 39 40 41 42 43 44 46 47 48 50 51 52 53 54 55 55 56 57 59 60 61 63 64
78 78 77 75 72 67 62 60 60 59 58 56 57 56 55 55 54 54 55 53 49 49 51 53 55 56 56 57 57 57 58 60 61 59 57 56 55 54 53 52 52 52 50 48 47 47 46 45 44 43 43 43 42 39 38 37 36 35 34 33 32 33 33 34 35 36 36 36 37 39 40 41 42 43 45 46 48 49 50 52 53 54 56 57 59 60
78 78 77 74 73 70 65 63 61 60 58 58 58 57 56 55 54 54 56 55 53 51 51 53 55 55 55 56 56 56 56 57 58 57 55 53 53 52 51 50 49 49 48 46 45 44 42 41 40 39 39 39 38 36 35 33 31 30 29 28 28 28 29 29 30 31 31 31 32 33 33 35 36 37 39 41 42 44 45 47 49 50 52 54 56 57
79 79 77 74 73 71 68 66 65 62 59 58 58 57 56 56 56 56 56 55 54 53 52 52 53 54 55 55 55 55 55 54 54 54 52 51 50 50 49 49 48 47 45 43 41 41 40 37 36 35 35 35 34 33 32 30 28 26 25 24 24 24 24 24 25 26 26 26 26 26 27 29 31 32 34 36 38 40 42 44 46 48 49 50 51 51
78 78 76 74 73 71 69 69 68 66 62 60 60 59 57 57 57 57 57 55 54 54 53 52 52 53 53 53 53 54 54 53 52 52 50 49 48 48 47 47 46 45 43 41 39 38 37 35 33 32 31 31 31 30 28 26 24 23 22 21 21 21 20 20 21 21 21 22 22 23 24 25 27 29 31 33 35 37 39 40 42 42 42 42 42 42
78 77 76 74 73 72 70 69 68 67 64 62 62 62 59 57 57 58 58 56 54 54 54 53 52 52 52 53 52 52 52 52 51 50 49 47 46 46 45 44 44 43 42 40 38 37 35 33 32 30 30 30 30 29 27 25 22 21 20 20 20 19 19 19 19 19 19 20 20 21 23 24 26 28 29 30 31 32 33 34 34 34 34 35 35 35
76 76 75 74 72 71 70 70 69 68 65 63 62 61 59 57 57 57 57 57 56 55 54 54 53 52 52 52 52 51 51 51 50 49 48 47 47 46 45 43 42 42 41 39 37 36 35 33 31 30 29 28 28 28 26 25 22 20 20 20 19 19 18 18 17 17 18 18 19 21 22 24 25 26 26 26 26 27 28 29 29 30 31 31 32 32
76 76 75 74 71 69 69 69 69 68 65 64 63 61 59 57 56 55 55 55 55 54 54 54 53 53 52 52 51 51 50 50 49 48 47 47 46 46 45 43 42 40 40 38 37 36 35 33 32 30 28 27 27 26 25 25 23 21 20 20 19 18 17 16 16 16 17 18 19 20 21 22 22 22 22 23 23 24 25 26 27 28 29 29 30 31
75 76 75 74 72 71 69 68 68 67 66 65 64 62 60 58 56 54 53 53 53 53 53 52 52 51 51 50 51 50 49 49 48 47 46 45 45 45 44 43 41 40 39 38 37 35 34 32 31 29 28 26 25 24 24 23 23 22 21 20 19 17 16 16 16 17 17 18 18 18 19 20 21 21 22 22 23 23 24 24 25 26 26 27 28 28
74 75 75 75 72 71 70 69 67 66 65 65 65 64 62 61 59 56 55 54 54 53 52 52 52 52 51 50 50 50 48 47 47 46 45 44 44 43 43 42 40 39 38 37 36 35 33 32 30 29 27 26 24 24 23 22 22 22 21 20 18 17 16 16 17 17 17 17 17 17 19 20 21 22 22 22 22 23 23 23 23 23 24 24 25 26
74 75 75 75 73 71 71 70 68 65 64 63 65 64 63 62 60 58 56 55 54 54 53 53 52 53 52 51 51 50 48 47 46 46 45 43 43 42 41 40 39 38 37 36 35 35 33 32 30 29 28 26 25 24 23 22 22 21 20 19 18 17 17 17 17 16 16 16 17 18 19 20 21 21 21 22 22 22 22 22 22 22 23 23 23 23
75 75 75 76 76 74 73 72 71 70 68 67 66 66 64 63 62 59 56 55 54 54 54 53 52 52 52 52 52 51 50 48 46 46 45 44 43 42 41 40 39 37 36 36 35 34 33 32 31 30 29 28 26 25 24 22 21 20 20 19 18 18 17 17 17 17 17 17 18 19 20 20 20 21 21 21 21 22 21 21 22 22 23 23 22 22
75 75 76 76 76 76 75 74 73 73 72 71 70 68 67 65 63 61 59 57 55 54 54 53 53 52 51 51 52 52 51 49 48 46 45 44 43 42 41 40 38 37 36 35 34 34 33 32 32 31 30 28 27 25 24 22 21 20 19 19 19 18 18 17 18 18 19 19 20 21 21 21 21 21 21 21 22 22 22 22 22 22 23 23 23 23
Wind_Direction
295 297 299 296 295 297 297 298 298 298 297 296 295 295 295 295 295 294 289 289 289 288 288 287 285 284 283 284 285 284 281 278 276 276 276 277 277 277 277 277 276 275 274 274 274 274 274 273 272 272 273 273 274 273 273 272 271 270 268 268 266 264 263 263 261 261 261 261 260 259 258 258 256 256 256 255 255 255 254 254 254 255 255 256 255 255
296 299 299 296 297 297 297 298 297 297 296 295 295 295 295 295 295 292 289 289 289 287 287 287 285 284 283 284 284 283 281 280 277 275 273 273 272 272 273 274 275 274 273 271 271 271 271 271 271 271 272 272 272 272 271 271 270 269 269 268 268 266 264 263 263 262 261 261 261 261 260 258 256 256 257 258 256 255 254 255 255 256 256 257 256 255
297 299 297 296 297 297 297 297 296 295 294 295 295 296 296 296 294 291 290 290 289 287 287 286 285 283 283 283 282 281 281 280 278 276 274 273 271 270 269 269 270 272 272 271 269 268 268 268 269 270 270 270 271 271 270 269 268 268 268 267 266 265 263 262 262 261 261 261 261 261 260 259 259 260 260 260 258 257 257 258 258 258 257 256 257 257
299 299 297 297 298 297 296 295 295 295 295 295 296 296 296 295 293 292 291 290 289 288 287 285 284 283 283 283 282 281 281 279 278 277 276 274 273 271 270 268 267 268 269 270 269 268 266 266 266 267 268 269 270 269 268 267 265 265 265 265 264 264 263 261 260 260 260 260 261 261 261 261 261 262 263 263 262 262 262 262 261 261 259 258 260 261
300 299 298 298 298 297 296 296 296 296 296 297 296 295 294 293 292 292 291 290 289 289 288 286 285 283 282 282 282 282 282 280 279 278 276 275 274 273 272 271 269 267 266 267 267 267 266 265 265 265 266 268 268 268 267 265 263 263 263 262 262 262 262 261 260 259 259 259 260 261 261 262 262 262 263 264 265 265 265 264 263 262 261 259 260 261
299 298 298 298 297 298 298 297 298 297 297 296 295 295 293 292 292 291 291 290 290 290 289 288 287 285 284 283 283 283 282 281 280 279 279 278 277 276 275 274 272 269 267 266 266 265 265 264 264 265 265 266 266 265 264 263 262 261 260 260 260 260 260 260 260 259 259 259 259 259 260 261 262 262 262 262 263 263 263 262 261 260 259 258 258 259
300 299 299 299 299 299 299 299 299 298 297 296 296 295 293 293 292 292 291 290 290 289 289 289 288 287 287 286 285 284 282 281 280 280 281 281 280 280 279 278 276 274 272 269 267 265 265 265 264 264 264 264 263 262 262 262 261 261 259 258 257 257 258 259 259 259 259 259 259 259 259 258 259 260 260 260 259 259 259 259 259 260 259 259 259 259
301 300 300 301 301 301 300 300 299 298 297 296 295 294 294 293 293 292 291 290 290 289 287 288 288 287 287 286 286 284 282 281 281 281 281 281 280 280 280 280 279 278 277 274 272 268 266 265 264 263 262 261 261 261 261 261 261 260 259 258 257 256 257 257 258 258 258 257 257 258 258 258 257 257 257 258 258 258 258 258 258 259 260 261 260 259
302 302 302 302 302 302 301 301 300 299 298 297 296 295 294 294 293 293 292 291 291 289 287 289 289 288 288 287 286 284 282 282 283 282 281 280 279 278 278 278 279 278 278 277 275 272 268 264 262 261 261 260 260 259 259 259 259 259 259 258 258 257 257 257 257 257 256 256 256 256 256 256 256 255 255 256 257 258 258 258 258 258 259 260 260 259
305 304 304 304 303 303 303 302 301 300 299 298 298 297 296 295 295 294 293 292 291 288 289 291 290 288 288 287 286 285 284 284 284 283 282 280 279 278 277 276 276 276 276 276 275 271 267 262 259 257 257 257 258 258 257 257 256 257 257 258 259 260 260 260 258 257 256 255 254 254 254 254 254 254 254 254 255 256 257 257 257 257 258 259 260 260
304 303 303 303 304 304 304 303 303 302 301 301 300 299 297 296 295 294 292 291 290 288 290 291 288 286 287 286 285 285 285 285 284 283 282 280 279 277 275 274 274 273 273 273 273 271 268 265 261 256 254 254 254 255 256 257 257 257 258 259 260 261 262 262 260 257 256 254 253 252 251 251 252 252 252 253 254 255 255 256 256 256 256 257 259 260
303 303 303 303 305 305 305 304 303 302 301 301 300 299 298 297 297 296 295 293 292 292 293 291 288 287 286 285 285 286 285 285 284 282 281 279 278 276 275 274 273 272 272 272 271 271 270 268 265 261 258 257 255 253 253 255 256 258 259 259 260 260 261 261 259 258 256 255 253 251 250 249 250 250 250 251 252 253 253 254 254 255 254 255 255 257
306 305 305 305 306 307 307 306 304 303 303 303 302 302 302 301 300 298 297 296 295 295 295 294 292 289 287 287 287 288 287 286 284 282 280 278 277 276 275 274 273 272 271 271 270 270 270 270 269 267 264 263 260 257 255 254 255 256 257 258 259 259 259 259 258 257 256 255 253 252 250 250 249 249 250 251 251 251 251 252 252 253 253 253 253 254
307 306 307 309 310 310 311 310 308 307 307 306 305 305 304 303 302 300 297 296 295 295 294 293 291 289 288 288 288 287 287 285 283 281 280 278 277 276 275 274 273 272 271 270 270 269 269 269 269 269 268 266 265 263 260 258 256 255 255 256 257 257 258 258 257 257 256 255 254 253 253 253 252 252 252 252 252 251 251 251 251 251 251 251 251 252
310 309 311 312 312 313 313 311 310 308 307 305 304 303 302 302 302 300 298 296 295 294 293 291 290 289 289 288 287 285 284 282 281 280 279 279 278 277 276 275 274 273 272 271 270 269 268 268 267 268 267 267 266 265 264 262 259 257 255 255 255 255 256 256 256 256 255 254 254 255 256 257 257 257 256 255 254 253 252 251 250 250 249 249 249 250
311 312 314 313 313 314 313 310 309 308 307 305 304 303 302 302 301 299 297 296 296 294 292 291 291 290 289 287 286 284 282 281 281 280 280 280 279 278 277 276 275 274 273 272 271 270 269 268 267 267 267 266 266 266 265 264 262 259 257 255 253 252 253 253 254 255 254 253 254 256 258 259 259 259 258 257 256 255 253 252 251 250 249 249 248 248
313 315 317 315 314 314 312 310 310 308 307 305 304 303 301 300 299 298 297 296 295 293 292 293 292 292 292 290 288 286 284 284 284 283 282 281 279 278 277 276 275 274 273 272 271 271 270 269 268 268 268 267 266 266 265 265 264 262 261 258 255 252 251 251 252 253 253 253 254 255 257 257 257 257 257 256 256 255 254 253 252 251 250 249 249 249
315 316 319 317 314 314 312 310 309 307 304 303 303 302 302 301 300 300 299 298 296 293 293 293 292 293 292 289 287 287 287 287 286 285 283 281 280 279 278 277 276 275 275 274 273 272 272 270 269 269 269 268 268 267 266 265 264 263 263 261 259 256 254 253 252 252 252 252 253 254 255 254 254 255 255 255 254 253 253 253 253 252 251 251 250 250
317 316 319 319 314 313 312 310 309 307 306 305 304 304 304 303 301 301 299 298 296 294 294 293 292 291 287 285 286 287 287 287 285 284 283 282 281 280 279 278 277 277 276 276 275 275 274 273 272 271 271 270 270 269 268 266 265 264 263 262 261 260 259 257 255 253 251 251 252 253 253 253 253 253 253 254 253 253 252 252 253 253 253 253 253 252
318 315 316 318 315 313 313 312 311 311 310 308 306 305 303 302 301 299 297 295 294 293 294 294 293 290 287 286 286 285 285 285 284 284 284 283 282 281 280 279 278 278 277 277 276 276 276 275 275 274 274 273 272 271 270 269 268 267 266 265 264 262 261 260 259 257 255 253 252 252 252 253 253 253 253 253 253 252 253 253 254 254 254 254 254 254
318 316 315 317 316 314 315 314 312 311 309 307 305 304 302 300 298 297 294 294 294 294 294 293 291 288 285 284 282 282 283 284 283 284 283 282 282 281 280 280 279 278 278 277 277 276 276 276 275 274 274 274 273 272 271 270 269 269 268 267 266 265 264 263 262 261 259 257 256 255 254 254 253 253 253 254 254 253 253 253 254 254 254 254 254 254
319 318 317 317 317 316 315 314 312 310 307 305 303 302 300 298 296 294 292 292 291 289 289 287 285 282 280 280 280 281 282 282 282 282 281 279 279 279 278 278 277 277 277 277 276 275 275 274 274 273 273 273 272 272 272 271 270 269 268 268 267 266 265 264 263 262 261 260 259 258 257 256 255 254 254 254 254 254 254 254 254 253 253 253 253 254
321 321 319 318 318 317 317 315 312 310 308 306 305 303 301 298 296 294 293 292 288 284 282 281 281 281 281 283 283 283 283 284 284 284 282 281 280 280 279 279 279 280 279 279 278 277 276 275 275 275 274 273 273 272 272 271 270 269 269 269 269 268 266 265 264 263 262 261 260 259 258 257 256 256 256 255 255 254 254 254 254 253 253 253 252 253
324 324 321 319 318 317 317 316 314 312 309 308 306 303 299 296 293 291 290 289 286 284 283 283 283 283 285 287 287 286 286 287 287 287 286 286 286 286 285 284 284 283 282 281 280 279 278 277 276 276 275 274 273 272 272 271 271 270 270 270 269 269 268 267 265 264 262 261 260 260 260 259 257 256 255 256 255 255 254 253 253 253 253 253 253 253
326 325 323 322 320 320 320 319 317 314 311 307 302 296 291 286 285 285 285 286 286 286 286 286 284 284 286 286 286 285 285 285 286 286 286 286 286 286 285 284 283 282 281 280 280 279 279 277 276 276 275 274 274 273 273 272 272 272 271 270 269 268 268 267 267 265 264 262 261 260 259 259 259 257 255 255 255 255 255 253 252 252 252 253 254 254
326 326 325 325 324 325 324 322 318 314 310 305 297 289 285 283 284 285 286 287 287 286 286 285 284 283 284 286 286 285 285 285 286 287 287 288 287 286 285 284 283 282 281 281 280 280 279 279 278 277 276 275 274 274 273 272 271 270 270 269 269 268 266 266 266 266 265 264 262 261 259 259 259 259 258 256 255 255 255 254 253 252 252 252 253 253
327 327 328 327 326 326 325 321 317 313 308 302 296 290 288 288 289 289 289 289 288 287 286 284 284 284 283 284 285 286 286 286 287 287 287 286 285 284 283 282 280 279 279 278 278 277 276 276 275 274 274 273 273 273 272 271 270 269 268 267 267 266 266 265 264 265 265 264 263 262 261 259 259 259 259 258 257 255 255 255 255 254 253 252 252 253
330 330 330 328 327 327 325 322 318 313 306 300 296 294 294 294 294 293 293 292 290 287 286 284 284 284 284 284 284 285 286 286 286 285 283 282 281 280 280 279 279 278 277 277 276 275 275 274 273 273 272 272 271 271 270 270 269 268 267 266 266 265 265 264 264 263 263 264 263 263 262 261 259 258 258 259 259 258 256 256 256 255 255 254 253 253
333 333 333 331 330 329 328 324 319 313 306 299 296 297 297 297 297 297 294 292 291 291 291 290 289 289 289 289 288 288 289 289 288 286 285 285 284 283 283 283 282 281 280 279 278 277 276 276 275 274 273 272 271 270 269 269 268 268 267 267 266 266 265 264 264 263 262 262 262 262 262 261 260 259 258 258 258 258 258 257 257 257 256 256 255 254
336 337 337 335 333 333 330 325 320 316 308 302 301 301 299 297 298 297 295 294 294 295 295 295 294 293 292 293 292 293 293 293 292 291 290 290 289 289 289 289 288 287 286 284 283 282 281 279 278 277 275 274 272 271 270 269 268 267 267 267 267 266 265 265 264 263 262 261 261 261 262 261 261 260 259 258 258 258 258 258 258 258 258 258 257 256
341 341 340 337 335 335 333 327 325 321 312 308 308 304 299 297 297 297 297 298 298 298 298 298 298 297 297 299 300 300 300 300 299 298 298 297 297 297 297 296 295 293 291 289 288 287 286 284 283 281 279 278 276 274 272 270 269 268 267 267 267 266 265 265 264 263 262 261 261 260 260 261 261 260 259 259 258 258 258 258 258 258 258 258 258 258
344 344 343 340 336 337 335 330 328 325 318 313 310 305 302 301 301 301 302 303 305 306 306 307 307 308 309 309 309 307 307 306 305 305 304 304 303 302 300 298 296 294 292 291 290 289 288 287 286 285 284 282 281 279 276 274 271 269 268 268 267 267 266 265 264 264 263 261 261 260 260 260 260 260 260 259 259 259 258 258 258 258 258 258 259 259
347 347 346 342 338 337 337 332 328 326 322 317 312 311 310 308 306 307 309 310 312 313 314 314 314 314 314 314 312 311 311 310 309 308 308 306 304 301 299 296 294 292 292 291 291 290 290 290 289 288 287 286 284 283 281 279 277 274 272 270 268 267 266 265 265 264 263 262 261 260 260 259 259 259 260 260 260 259 259 259 259 259 259 259 259 259
350 349 348 345 339 337 336 333 330 330 328 325 321 319 317 315 315 316 317 318 319 319 316 315 314 315 315 314 314 313 312 311 311 310 309 307 304 302 299 297 295 294 294 293 292 292 291 291 290 290 289 288 287 285 284 283 282 279 276 273 270 268 266 265 265 264 264 263 262 261 261 260 260 259 259 259 259 259 259 259 259 259 259 259 259 259
351 351 351 347 341 337 337 335 335 335 333 330 328 325 323 321 320 319 318 319 321 318 314 312 313 315 315 315 314 313 312 312 312 313 312 310 308 306 303 300 299 298 297 296 294 294 294 294 293 292 291 290 289 288 287 285 283 281 277 274 271 269 267 266 265 264 264 263 262 262 261 261 260 260 259 259 259 259 259 259 259 260 259 259 259 259
353 353 352 350 344 340 339 339 339 337 334 333 332 328 325 322 320 317 317 321 322 318 315 316 317 318 317 316 316 314 314 315 317 318 317 314 312 311 308 306 305 303 301 299 298 297 297 296 295 294 293 292 292 291 289 287 285 282 278 275 272 270 268 266 264 264 264 263 263 262 261 261 260 259 259 259 259 259 259 259 259 259 259 259 259 259
354 354 354 352 348 343 340 340 340 337 337 336 333 329 325 324 324 321 321 326 327 322 321 322 320 319 318 317 317 318 318 319 322 324 322 319 318 317 314 311 310 309 308 306 304 303 301 299 297 295 294 293 293 293 291 290 288 285 281 277 275 272 269 267 265 263 263 263 263 262 261 260 259 258 258 258 259 259 259 259 259 259 260 260 259 259
354 356 356 354 350 345 341 340 340 339 340 337 333 331 328 326 325 322 321 325 326 323 322 322 320 319 319 319 321 322 322 323 327 330 329 326 324 323 320 317 315 314 314 313 311 309 305 302 300 298 297 295 294 294 293 293 292 288 284 281 278 275 272 270 267 265 264 263 262 261 259 258 257 257 256 257 258 259 259 259 259 259 260 260 260 260
355 356 357 356 352 348 344 342 342 340 340 338 334 333 330 326 325 323 321 324 325 322 321 320 319 321 322 323 325 326 326 327 330 334 333 330 329 328 325 323 321 318 317 316 314 312 310 308 306 304 302 299 297 297 297 296 294 291 288 285 283 280 277 274 270 267 265 264 262 260 259 257 256 255 255 256 257 258 259 259 260 260 260 261 261 261
355 356 358 357 355 351 347 344 343 341 340 338 335 333 331 329 327 323 322 324 325 323 321 321 323 324 325 326 327 329 329 329 331 335 335 333 332 331 329 327 325 323 322 320 317 316 315 313 311 308 305 303 302 302 300 298 295 293 292 290 286 283 279 276 273 270 267 264 262 261 259 258 256 256 255 256 256 258 259 259 260 261 261 262 262 262
356 356 357 358 357 354 348 344 344 343 341 339 336 333 331 330 328 325 324 326 327 325 325 324 324 325 326 327 329 330 331 331 332 334 336 335 333 332 331 329 328 328 328 327 325 322 320 319 316 313 310 308 307 306 304 302 301 299 296 293 290 286 281 277 274 271 268 265 263 261 260 258 256 256 255 256 257 258 259 260 261 262 263 264 264 264
355 356 356 356 356 355 351 346 346 345 343 340 337 335 332 330 330 328 327 328 328 326 326 326 325 326 327 328 329 330 331 333 333 334 336 337 336 334 333 331 331 331 331 331 329 326 325 324 322 319 315 312 310 309 308 308 307 304 301 297 292 287 283 278 274 271 269 266 263 260 258 257 256 255 255 256 258 259 261 262 263 264 265 265 265 265
355 356 356 354 354 354 353 350 347 345 343 340 338 339 337 333 331 329 329 329 329 326 326 326 326 326 326 328 329 330 331 333 334 335 336 338 337 335 335 334 333 333 333 333 332 330 328 328 327 323 320 317 314 314 314 313 312 309 304 300 294 289 284 278 275 272 269 267 264 261 259 257 257 258 258 260 261 262 263 264 265 265 265 265 265 265
354 355 355 354 353 352 352 351 349 346 344 340 338 339 338 335 331 330 329 330 330 328 327 327 327 327 326 327 329 330 331 332 334 335 336 337 337 336 336 336 335 335 335 335 334 333 332 331 330 328 325 322 320 320 320 318 316 312 307 302 297 292 287 283 278 275 271 268 265 263 263 262 263 263 264 264 264 264 264 264 264 263 263 263 263 264
354 354 354 354 353 351 349 349 349 348 346 341 339 339 338 336 333 331 330 330 330 330 328 327 327 327 327 327 329 330 331 332 334 335 336 337 336 336 336 337 337 337 337 336 336 335 334 334 333 331 329 326 323 323 322 320 318 314 308 303 299 295 291 286 280 275 271 269 267 267 267 268 268 268 267 267 266 265 265 264 264 263 263 263 262 262
353 353 353 353 353 352 349 347 347 347 346 342 340 339 338 336 334 332 331 330 330 330 329 328 327 327 327 327 328 329 330 331 333 334 335 335 335 335 336 337 337 337 337 337 336 336 335 334 333 332 330 326 324 322 321 319 317 313 308 304 300 295 290 284 277 273 271 270 270 270 270 270 271 271 272 271 270 269 268 267 266 266 265 265 264 263
353 352 352 351 351 350 349 347 346 346 345 343 342 341 339 337 336 334 332 331 331 331 330 328 327 326 326 326 327 328 330 331 332 333 334 334 334 334 335 336 336 336 336 336 336 335 335 334 333 331 330 328 325 322 319 316 314 312 309 305 300 295 289 282 278 275 274 272 271 271 272 274 275 276 276 275 274 273 271 271 270 270 270 269 267 266
353 351 351 351 350 348 347 346 346 346 345 343 343 344 342 340 339 336 334 332 331 331 330 330 328 328 328 327 327 327 329 330 330 331 333 333 333 333 334 335 335 335 335 334 334 334 334 333 333 331 329 328 325 322 318 315 312 310 307 304 300 294 289 285 281 278 276 274 273 275 277 278 277 277 276 276 276 275 274 273 272 272 273 273 271 269
353 352 351 350 349 347 345 344 344 345 345 344 344 345 344 343 341 339 335 333 331 331 331 331 330 330 329 329 327 327 328 330 330 330 331 332 332 332 333 334 334 334 333 333 332 333 333 332 332 331 329 327 325 322 319 315 311 308 306 302 298 294 291 288 284 280 277 276 278 280 281 280 278 278 278 278 277 276 275 274 273 273 273 273 273 272
352 352 350 350 349 347 345 344 343 344 345 346 346 347 346 345 343 341 338 335 333 332 331 331 331 331 330 329 328 327 328 329 329 329 330 330 330 331 332 333 333 333 332 332 332 332 332 331 331 330 329 328 326 323 319 315 311 308 305 302 297 293 291 289 286 282 280 281 282 283 282 281 279 278 278 279 278 278 277 276 275 274 273 273 272 272
351 351 350 350 350 347 345 344 344 344 345 346 347 347 347 346 345 343 341 338 336 334 332 331 332 332 331 330 328 328 328 329 328 328 329 329 328 329 330 330 331 331 331 331 331 331 331 330 329 329 329 329 327 325 322 317 313 309 307 303 297 292 289 288 286 284 284 283 283 283 282 280 279 279 279 279 279 278 277 276 276 275 274 274 272 271
Height
5731 5729 5728 5724 5721 5719 5717 5715 5713 5711 5709 5706 5704 5702 5700 5698 5697 5696 5691 5689 5688 5685 5683 5681 5679 5677 5673 5672 5673 5672 5671 5670 5668 5666 5664 5662 5661 5659 5658 5657 5656 5655 5654 5653 5651 5650 5649 5648 5647 5647 5646 5645 5645 5644 5644 5643 5642 5642 5641 5641 5641 5641 5640 5639 5638 5638 5636 5637 5637 5636 5637 5637 5637 5637 5637 5638 5639 5639 5638 5638 5637 5638 5638 5638 5639 5639
5727 5726 5723 5719 5718 5716 5713 5711 5709 5707 5704 5702 5700 5697 5696 5693 5692 5690 5686 5684 5684 5680 5678 5676 5673 5671 5668 5668 5668 5666 5665 5664 5663 5661 5659 5658 5656 5654 5653 5651 5650 5649 5648 5648 5646 5645 5644 5643 5642 5641 5640 5640 5639 5638 5638 5638 5637 5636 5636 5636 5635 5636 5636 5634 5634 5633 5632 5632 5631 5631 5632 5631 5630 5631 5632 5633 5634 5633 5632 5632 5632 5632 5632 5631 5632 5633
5724 5722 5719 5716 5714 5712 5710 5707 5705 5703 5700 5698 5695 5693 5691 5688 5685 5684 5681 5679 5678 5676 5674 5670 5667 5664 5662 5663 5662 5660 5659 5658 5656 5655 5653 5652 5650 5649 5647 5646 5644 5643 5642 5641 5640 5639 5638 5637 5636 5635 5634 5633 5633 5633 5632 5632 5631 5631 5630 5631 5630 5629 5630 5630 5628 5628 5627 5626 5625 5625 5625 5624 5625 5626 5627 5627 5628 5627 5627 5627 5627 5627 5626 5625 5624 5626
5720 5718 5715 5713 5711 5708 5706 5704 5701 5698 5696 5694 5691 5689 5686 5683 5679 5677 5676 5674 5671 5670 5668 5665 5661 5658 5656 5657 5656 5654 5653 5650 5649 5648 5646 5645 5643 5641 5641 5639 5638 5637 5635 5634 5634 5633 5632 5631 5630 5629 5628 5627 5626 5626 5626 5626 5625 5625 5624 5624 5624 5622 5623 5623 5622 5622 5621 5620 5619 5619 5619 5619 5620 5621 5621 5621 5622 5622 5622 5622 5622 5622 5621 5620 5618 5620
5717 5714 5712 5710 5707 5704 5702 5699 5697 5694 5692 5690 5687 5684 5682 5678 5674 5671 5669 5667 5665 5663 5662 5658 5654 5651 5650 5650 5649 5648 5646 5643 5641 5640 5639 5637 5636 5634 5633 5632 5631 5630 5629 5628 5627 5626 5625 5624 5623 5622 5621 5620 5619 5619 5619 5619 5618 5618 5618 5618 5617 5616 5616 5616 5616 5616 5615 5614 5613 5613 5613 5613 5614 5615 5616 5616 5616 5617 5616 5616 5616 5616 5616 5615 5614 5615
5714 5710 5708 5706 5703 5701 5698 5695 5693 5690 5688 5685 5682 5679 5675 5672 5669 5666 5663 5660 5658 5657 5654 5651 5646 5641 5641 5642 5643 5642 5639 5635 5633 5631 5630 5629 5628 5626 5625 5624 5623 5622 5621 5621 5620 5618 5618 5617 5616 5615 5614 5613 5612 5612 5611 5611 5611 5611 5611 5611 5610 5609 5609 5608 5608 5609 5609 5608 5607 5607 5607 5607 5608 5609 5609 5610 5610 5609 5609 5610 5609 5609 5610 5610 5609 5609
5710 5707 5705 5702 5699 5697 5694 5691 5688 5685 5682 5679 5676 5673 5669 5666 5663 5660 5657 5653 5651 5650 5648 5646 5639 5632 5632 5632 5633 5634 5631 5627 5626 5624 5622 5621 5619 5617 5615 5614 5613 5612 5612 5611 5611 5611 5610 5609 5608 5607 5606 5605 5604 5603 5603 5603 5602 5603 5603 5603 5603 5602 5601 5601 5601 5601 5601 5600 5600 5600 5600 5600 5601 5601 5602 5603 5602 5601 5601 5602 5602 5602 5602 5603 5603 5603
5707 5704 5701 5698 5695 5692 5689 5686 5683 5680 5676 5673 5670 5667 5663 5660 5656 5653 5651 5646 5644 5642 5641 5641 5634 5626 5625 5623 5624 5625 5622 5619 5618 5617 5615 5613 5611 5608 5606 5604 5603 5601 5601 5600 5601 5601 5601 5600 5599 5599 5598 5597 5596 5595 5595 5594 5594 5594 5594 5594 5594 5594 5593 5593 5593 5593 5593 5592 5592 5592 5593 5593 5593 5594 5594 5594 5593 5593 5594 5595 5595 5595 5595 5596 5596 5596
5703 5700 5696 5694 5691 5687 5684 5680 5677 5673 5670 5667 5664 5660 5656 5653 5650 5647 5643 5640 5637 5633 5633 5637 5630 5619 5617 5615 5614 5615 5613 5611 5611 5609 5607 5605 5603 5601 5598 5596 5594 5592 5590 5590 5589 5589 5590 5590 5590 5590 5589 5589 5588 5587 5587 5586 5585 5585 5585 5585 5585 5585 5585 5585 5585 5584 5584 5584 5584 5584 5584 5585 5585 5585 5586 5586 5585 5586 5586 5587 5588 5588 5589 5589 5589 5590
5699 5695 5691 5689 5686 5682 5679 5675 5671 5667 5663 5660 5657 5653 5650 5646 5643 5641 5636 5632 5629 5623 5624 5631 5626 5614 5609 5606 5605 5605 5604 5604 5603 5600 5598 5596 5594 5592 5590 5588 5586 5584 5582 5580 5579 5579 5579 5580 5580 5580 5580 5579 5579 5579 5578 5577 5577 5577 5576 5576 5576 5576 5576 5576 5576 5576 5575 5575 5575 5575 5576 5576 5577 5577 5578 5577 5577 5577 5578 5579 5580 5581 5582 5582 5582 5583
5695 5692 5688 5684 5681 5677 5674 5670 5665 5661 5657 5654 5650 5646 5642 5640 5636 5633 5630 5626 5620 5616 5617 5622 5619 5609 5603 5598 5596 5597 5596 5595 5594 5591 5589 5587 5585 5583 5581 5579 5577 5575 5574 5571 5570 5569 5569 5569 5570 5570 5570 5570 5569 5569 5569 5568 5567 5567 5567 5567 5566 5566 5566 5566 5566 5566 5566 5566 5566 5566 5566 5567 5568 5568 5569 5569 5569 5569 5569 5570 5571 5572 5574 5574 5575 5577
5691 5688 5685 5681 5677 5673 5669 5665 5661 5657 5652 5648 5645 5639 5634 5632 5629 5623 5621 5617 5611 5608 5608 5610 5609 5603 5596 5590 5589 5589 5588 5587 5585 5583 5580 5577 5575 5573 5572 5570 5568 5566 5565 5563 5560 5559 5558 5558 5558 5559 5558 5559 5559 5559 5559 5558 5557 5557 5556 5557 5556 5556 5556 5556 5556 5556 5556 5556 5556 5556 5556 5557 5558 5559 5559 5560 5560 5560 5560 5561 5562 5563 5565 5566 5567 5569
5686 5683 5679 5676 5673 5669 5663 5658 5654 5650 5646 5641 5637 5633 5626 5623 5620 5615 5613 5608 5603 5602 5600 5597 5596 5593 5587 5583 5582 5581 5578 5577 5575 5572 5571 5568 5566 5564 5562 5561 5559 5557 5556 5554 5552 5549 5548 5547 5546 5546 5546 5546 5546 5547 5548 5548 5547 5547 5546 5545 5546 5545 5545 5545 5545 5546 5546 5546 5546 5546 5546 5547 5548 5549 5549 5550 5550 5550 5551 5551 5552 5554 5555 5557 5559 5560
5682 5678 5674 5668 5665 5662 5657 5651 5646 5641 5639 5634 5630 5626 5621 5616 5610 5606 5605 5601 5596 5595 5594 5589 5585 5582 5579 5575 5574 5574 5570 5567 5566 5563 5561 5559 5557 5555 5553 5551 5549 5547 5546 5544 5543 5541 5539 5537 5535 5535 5534 5534 5534 5534 5535 5536 5536 5536 5535 5535 5535 5534 5534 5534 5534 5535 5535 5535 5535 5535 5535 5536 5537 5538 5539 5539 5540 5540 5541 5542 5542 5544 5545 5547 5549 5551
5676 5673 5669 5663 5658 5656 5652 5646 5641 5635 5632 5629 5626 5621 5616 5613 5605 5597 5595 5592 5587 5586 5585 5582 5575 5571 5571 5566 5564 5565 5561 5558 5557 5554 5552 5549 5547 5545 5543 5542 5539 5537 5536 5534 5533 5531 5530 5528 5527 5525 5524 5523 5523 5522 5522 5523 5523 5524 5524 5524 5523 5523 5523 5523 5523 5523 5524 5524 5524 5523 5524 5524 5525 5526 5527 5528 5529 5530 5530 5531 5532 5534 5535 5536 5539 5540
5672 5670 5666 5659 5654 5652 5648 5643 5637 5631 5625 5621 5619 5615 5609 5606 5600 5590 5586 5584 5579 5573 5572 5575 5568 5560 5559 5556 5553 5553 5550 5549 5547 5544 5543 5540 5537 5535 5532 5531 5529 5527 5526 5524 5522 5521 5519 5518 5517 5515 5514 5513 5512 5512 5511 5511 5511 5511 5511 5512 5512 5512 5511 5511 5511 5511 5512 5512 5512 5512 5512 5513 5513 5514 5515 5517 5518 5519 5520 5520 5522 5523 5524 5526 5528 5529
5664 5666 5664 5656 5649 5647 5642 5637 5633 5626 5619 5614 5610 5607 5602 5598 5593 5584 5576 5575 5573 5563 5560 5565 5561 5552 5547 5542 5540 5541 5538 5538 5537 5534 5532 5529 5527 5525 5522 5520 5519 5516 5515 5513 5512 5510 5509 5507 5506 5505 5503 5502 5501 5501 5500 5500 5499 5499 5499 5500 5500 5500 5500 5499 5498 5498 5499 5499 5500 5500 5501 5502 5502 5503 5504 5505 5506 5507 5508 5509 5510 5512 5513 5515 5516 5518
5654 5656 5661 5654 5644 5641 5636 5630 5627 5622 5614 5609 5603 5598 5593 5588 5585 5579 5568 5564 5562 5554 5550 5555 5553 5547 5541 5531 5526 5528 5528 5527 5526 5523 5520 5518 5516 5514 5512 5510 5508 5506 5504 5502 5501 5499 5497 5496 5496 5494 5492 5491 5490 5488 5488 5487 5487 5487 5487 5487 5487 5487 5488 5488 5487 5486 5486 5486 5487 5488 5489 5490 5491 5492 5492 5493 5494 5495 5496 5497 5499 5500 5502 5504 5505 5507
5647 5643 5650 5650 5639 5634 5631 5622 5618 5613 5605 5600 5595 5590 5586 5578 5575 5573 5564 5557 5552 5545 5540 5543 5544 5540 5533 5525 5519 5517 5518 5517 5514 5512 5509 5508 5506 5503 5501 5499 5497 5495 5493 5491 5490 5488 5486 5484 5483 5482 5481 5479 5478 5476 5475 5475 5474 5474 5473 5474 5474 5474 5475 5475 5475 5475 5474 5474 5474 5475 5476 5477 5479 5480 5481 5482 5483 5483 5484 5485 5487 5489 5490 5492 5494 5496
5644 5633 5634 5642 5635 5627 5624 5616 5608 5604 5597 5591 5585 5582 5579 5572 5567 5563 5558 5553 5546 5538 5532 5530 5532 5529 5521 5518 5515 5509 5508 5506 5503 5501 5499 5496 5495 5492 5490 5488 5486 5484 5482 5480 5479 5477 5475 5472 5471 5470 5469 5467 5465 5464 5463 5462 5462 5461 5460 5460 5460 5460 5461 5462 5463 5463 5463 5463 5463 5463 5464 5465 5466 5467 5468 5469 5470 5472 5473 5473 5475 5477 5479 5481 5482 5484
5640 5630 5622 5627 5627 5621 5618 5611 5603 5598 5592 5585 5579 5574 5569 5563 5559 5553 5548 5547 5540 5531 5526 5521 5520 5518 5510 5508 5507 5502 5499 5496 5493 5491 5488 5485 5483 5480 5479 5477 5475 5473 5471 5469 5467 5465 5464 5462 5459 5459 5457 5454 5452 5451 5451 5450 5450 5449 5448 5448 5447 5447 5448 5448 5449 5450 5450 5451 5451 5451 5452 5452 5453 5453 5455 5456 5457 5459 5460 5462 5463 5465 5467 5469 5471 5472
5632 5626 5617 5615 5616 5614 5612 5607 5599 5592 5585 5579 5572 5567 5561 5555 5550 5544 5537 5538 5534 5526 5522 5516 5510 5508 5502 5498 5498 5493 5489 5487 5483 5481 5478 5475 5473 5470 5468 5466 5464 5462 5460 5458 5456 5454 5452 5451 5448 5447 5445 5443 5440 5439 5438 5437 5437 5437 5436 5436 5435 5435 5435 5435 5436 5436 5437 5437 5437 5438 5439 5440 5440 5440 5441 5443 5444 5445 5447 5449 5451 5453 5455 5457 5458 5460
5627 5620 5611 5606 5605 5603 5601 5596 5590 5582 5575 5569 5562 5555 5550 5544 5540 5534 5527 5525 5522 5517 5515 5509 5502 5497 5491 5488 5487 5483 5480 5476 5472 5470 5467 5464 5462 5459 5457 5455 5453 5451 5448 5446 5444 5441 5439 5438 5436 5434 5432 5431 5429 5426 5425 5424 5423 5424 5423 5423 5422 5422 5421 5421 5422 5423 5424 5424 5424 5424 5425 5426 5428 5428 5428 5429 5430 5432 5434 5436 5438 5440 5443 5445 5447 5448
5622 5615 5604 5596 5593 5593 5592 5586 5578 5571 5563 5558 5553 5545 5538 5534 5529 5524 5519 5514 5508 5505 5505 5500 5494 5489 5483 5479 5477 5473 5470 5467 5463 5460 5457 5455 5452 5449 5446 5444 5441 5439 5437 5434 5432 5429 5427 5425 5423 5421 5419 5417 5416 5414 5412 5411 5410 5410 5409 5409 5409 5409 5408 5408 5408 5409 5410 5411 5412 5411 5412 5412 5414 5416 5417 5417 5418 5419 5421 5423 5425 5427 5430 5432 5434 5436
5615 5610 5599 5587 5579 5575 5575 5571 5564 5557 5551 5546 5543 5537 5528 5524 5520 5513 5509 5506 5500 5496 5496 5492 5486 5482 5476 5471 5466 5463 5460 5458 5456 5452 5449 5446 5442 5439 5436 5433 5430 5427 5425 5423 5420 5418 5416 5413 5411 5408 5406 5404 5402 5401 5399 5398 5397 5396 5395 5394 5394 5395 5395 5394 5394 5395 5397 5398 5399 5400 5400 5400 5401 5402 5404 5406 5407 5407 5408 5410 5412 5414 5416 5419 5421 5424
5610 5606 5597 5584 5572 5563 5557 5553 5547 5541 5537 5533 5530 5525 5517 5514 5511 5504 5500 5497 5491 5487 5488 5484 5477 5473 5469 5462 5455 5452 5450 5449 5447 5444 5440 5436 5433 5429 5425 5421 5418 5415 5413 5411 5409 5407 5404 5401 5398 5396 5394 5392 5390 5388 5386 5384 5383 5382 5381 5381 5380 5380 5380 5381 5381 5381 5383 5384 5385 5387 5388 5389 5389 5390 5391 5393 5395 5396 5397 5398 5399 5401 5402 5405 5407 5410
5603 5599 5593 5581 5571 5562 5551 5544 5538 5532 5527 5521 5516 5511 5506 5503 5501 5497 5492 5489 5482 5477 5476 5474 5467 5462 5460 5453 5445 5442 5440 5438 5437 5434 5430 5427 5423 5419 5414 5409 5406 5404 5401 5399 5396 5394 5391 5388 5385 5383 5380 5378 5377 5375 5372 5370 5369 5369 5368 5368 5367 5366 5366 5367 5368 5368 5369 5370 5371 5373 5374 5376 5378 5379 5379 5380 5382 5384 5385 5386 5387 5389 5390 5391 5393 5396
5594 5589 5583 5574 5566 5558 5547 5537 5530 5525 5520 5512 5504 5499 5496 5494 5492 5489 5484 5479 5474 5468 5464 5463 5459 5453 5449 5443 5437 5434 5431 5428 5425 5422 5419 5416 5412 5408 5402 5397 5394 5392 5390 5387 5383 5380 5378 5375 5372 5370 5368 5365 5363 5361 5358 5356 5355 5354 5354 5354 5354 5354 5354 5353 5354 5356 5357 5357 5358 5359 5360 5362 5365 5367 5368 5368 5369 5371 5373 5375 5376 5377 5378 5380 5381 5383
5587 5580 5571 5561 5554 5548 5538 5529 5522 5517 5512 5505 5496 5492 5489 5486 5482 5480 5476 5470 5466 5461 5455 5451 5449 5445 5439 5433 5429 5427 5422 5417 5414 5410 5407 5404 5400 5395 5390 5385 5381 5379 5376 5373 5370 5367 5364 5361 5358 5356 5354 5351 5349 5347 5345 5343 5341 5340 5340 5340 5340 5340 5340 5340 5341 5343 5345 5346 5346 5347 5348 5350 5352 5354 5356 5357 5358 5359 5361 5362 5364 5366 5367 5368 5369 5371
5578 5570 5560 5548 5541 5536 5529 5522 5516 5510 5504 5497 5491 5487 5484 5480 5475 5470 5467 5463 5458 5454 5449 5443 5440 5438 5433 5427 5422 5419 5414 5409 5404 5401 5397 5393 5388 5383 5378 5373 5369 5366 5362 5358 5355 5353 5350 5347 5344 5341 5339 5336 5333 5331 5330 5329 5327 5326 5326 5326 5326 5325 5325 5325 5327 5329 5332 5334 5334 5335 5336 5337 5340 5342 5344 5346 5347 5348 5350 5351 5352 5354 5355 5356 5357 5359
5568 5560 5551 5538 5530 5526 5520 5513 5508 5504 5497 5490 5486 5483 5478 5473 5469 5464 5460 5456 5450 5445 5441 5436 5431 5429 5425 5420 5415 5411 5406 5401 5396 5391 5387 5382 5378 5372 5367 5362 5358 5353 5348 5344 5342 5340 5337 5334 5330 5327 5324 5321 5318 5316 5314 5313 5312 5311 5312 5312 5311 5311 5310 5310 5312 5314 5317 5320 5322 5322 5324 5325 5327 5329 5331 5334 5335 5337 5338 5340 5341 5342 5343 5344 5345 5346
5561 5551 5542 5530 5520 5516 5512 5505 5500 5498 5492 5485 5481 5478 5473 5467 5462 5459 5455 5450 5442 5435 5431 5427 5422 5418 5415 5411 5406 5401 5396 5391 5386 5381 5376 5371 5367 5361 5356 5351 5346 5339 5334 5330 5328 5326 5323 5320 5317 5314 5310 5307 5304 5301 5298 5296 5295 5296 5298 5298 5296 5295 5295 5296 5297 5299 5303 5306 5308 5309 5311 5313 5315 5317 5319 5321 5324 5325 5327 5328 5330 5331 5332 5333 5333 5334
5555 5543 5533 5522 5512 5508 5505 5499 5494 5491 5487 5481 5475 5470 5466 5460 5455 5452 5449 5445 5438 5430 5423 5418 5413 5409 5405 5401 5396 5391 5387 5382 5376 5371 5366 5360 5355 5350 5345 5338 5332 5326 5321 5317 5313 5310 5307 5305 5302 5299 5295 5292 5290 5286 5283 5281 5280 5280 5281 5282 5281 5280 5281 5281 5282 5285 5288 5291 5293 5295 5297 5300 5303 5304 5306 5308 5311 5313 5315 5316 5318 5319 5320 5321 5322 5323
5551 5540 5530 5520 5509 5503 5500 5495 5490 5485 5480 5475 5470 5463 5458 5453 5447 5443 5440 5436 5433 5426 5418 5412 5408 5404 5399 5395 5389 5383 5378 5373 5368 5363 5358 5351 5344 5338 5332 5326 5319 5314 5310 5306 5301 5297 5294 5291 5288 5285 5281 5278 5275 5272 5270 5268 5266 5264 5264 5264 5264 5265 5266 5266 5267 5270 5273 5276 5279 5281 5284 5286 5289 5291 5294 5296 5299 5301 5303 5304 5305 5306 5308 5310 5311 5312
5546 5536 5527 5519 5509 5501 5497 5490 5483 5478 5472 5467 5462 5457 5451 5446 5441 5436 5433 5432 5428 5422 5416 5410 5405 5401 5396 5390 5384 5377 5371 5366 5362 5357 5352 5343 5334 5327 5320 5314 5310 5305 5300 5295 5289 5285 5282 5279 5275 5272 5269 5266 5263 5261 5258 5255 5253 5251 5250 5249 5249 5250 5252 5252 5254 5256 5259 5262 5266 5268 5270 5272 5275 5278 5281 5284 5287 5289 5291 5292 5293 5294 5295 5297 5299 5300
5542 5531 5522 5515 5505 5497 5491 5485 5478 5472 5467 5461 5455 5450 5445 5441 5437 5430 5426 5427 5425 5417 5410 5404 5399 5394 5389 5383 5378 5371 5365 5360 5355 5351 5345 5335 5326 5319 5312 5306 5300 5296 5290 5285 5280 5276 5272 5269 5265 5262 5259 5256 5253 5250 5247 5244 5242 5240 5238 5237 5236 5237 5239 5239 5242 5244 5246 5249 5252 5255 5257 5259 5262 5265 5269 5272 5275 5277 5278 5280 5281 5282 5282 5285 5287 5288
5540 5530 5519 5509 5501 5493 5486 5482 5477 5470 5463 5456 5450 5445 5440 5434 5429 5421 5414 5414 5413 5407 5400 5395 5390 5386 5381 5375 5371 5365 5357 5351 5347 5344 5339 5329 5319 5312 5305 5299 5293 5287 5282 5277 5273 5268 5264 5260 5257 5254 5250 5247 5244 5241 5237 5235 5233 5230 5229 5228 5227 5226 5227 5229 5231 5233 5235 5237 5240 5243 5245 5247 5250 5253 5257 5260 5263 5265 5266 5268 5269 5270 5271 5273 5275 5276
5538 5528 5517 5507 5499 5492 5484 5477 5472 5465 5460 5454 5447 5442 5436 5429 5425 5418 5410 5408 5406 5399 5394 5390 5384 5380 5375 5369 5363 5357 5349 5342 5338 5334 5329 5321 5313 5305 5298 5292 5286 5280 5275 5270 5265 5261 5257 5253 5249 5246 5242 5239 5236 5233 5230 5227 5225 5223 5222 5221 5219 5218 5219 5220 5222 5224 5226 5228 5230 5232 5234 5236 5239 5243 5247 5250 5252 5254 5256 5257 5258 5259 5260 5262 5263 5264
5537 5528 5519 5509 5499 5492 5483 5474 5466 5459 5454 5448 5442 5437 5433 5426 5420 5415 5409 5406 5404 5398 5391 5386 5381 5375 5369 5362 5356 5350 5341 5332 5327 5324 5318 5311 5305 5298 5291 5285 5279 5274 5269 5264 5259 5254 5250 5246 5242 5239 5235 5231 5228 5226 5224 5221 5219 5217 5215 5215 5214 5213 5212 5213 5214 5216 5218 5220 5222 5224 5226 5228 5231 5235 5238 5240 5242 5244 5246 5247 5248 5249 5250 5252 5253 5253
5531 5522 5514 5505 5495 5487 5479 5473 5466 5458 5451 5444 5437 5431 5427 5421 5415 5408 5402 5400 5399 5394 5387 5380 5374 5368 5362 5356 5350 5344 5336 5327 5319 5316 5311 5304 5297 5292 5286 5279 5274 5268 5263 5259 5254 5250 5245 5240 5236 5232 5229 5225 5222 5220 5218 5216 5214 5212 5211 5210 5209 5208 5207 5207 5208 5210 5212 5214 5215 5217 5219 5222 5224 5227 5230 5232 5234 5236 5237 5238 5239 5240 5241 5242 5243 5243
5524 5515 5508 5500 5492 5484 5475 5469 5463 5456 5448 5441 5433 5426 5420 5416 5412 5405 5397 5392 5389 5385 5381 5374 5367 5362 5356 5350 5345 5339 5334 5326 5318 5312 5307 5301 5294 5288 5282 5276 5270 5264 5259 5254 5249 5244 5240 5236 5232 5227 5223 5220 5217 5215 5213 5211 5210 5208 5207 5206 5205 5204 5203 5203 5204 5205 5206 5208 5210 5212 5214 5216 5218 5221 5223 5225 5226 5228 5229 5230 5231 5232 5232 5233 5233 5234
5517 5508 5500 5494 5488 5482 5473 5464 5457 5452 5446 5439 5432 5425 5417 5410 5404 5399 5393 5387 5382 5377 5373 5369 5363 5356 5351 5346 5340 5334 5329 5324 5317 5310 5305 5298 5291 5285 5278 5272 5267 5262 5257 5252 5247 5241 5237 5233 5229 5225 5221 5217 5214 5212 5210 5208 5206 5205 5204 5203 5202 5201 5200 5200 5200 5201 5203 5204 5206 5208 5210 5212 5213 5215 5217 5218 5220 5221 5222 5222 5223 5224 5224 5224 5224 5224
5513 5505 5497 5490 5483 5478 5471 5461 5451 5445 5440 5433 5427 5422 5414 5405 5398 5392 5386 5383 5378 5372 5367 5363 5358 5352 5346 5341 5337 5331 5324 5319 5314 5308 5302 5296 5290 5283 5276 5270 5264 5259 5254 5249 5245 5240 5235 5231 5227 5224 5220 5216 5212 5210 5208 5206 5204 5203 5201 5200 5199 5198 5198 5198 5198 5199 5200 5201 5203 5204 5206 5207 5209 5210 5212 5213 5214 5215 5215 5215 5216 5216 5216 5216 5216 5216
5510 5503 5496 5488 5477 5469 5465 5460 5452 5443 5436 5427 5419 5414 5408 5401 5394 5387 5381 5376 5373 5367 5361 5356 5353 5348 5341 5336 5332 5327 5321 5315 5310 5304 5298 5293 5287 5281 5275 5269 5262 5257 5251 5247 5242 5238 5233 5229 5226 5222 5218 5214 5211 5208 5206 5204 5203 5201 5200 5199 5198 5197 5197 5197 5197 5197 5198 5199 5200 5201 5202 5203 5204 5205 5206 5207 5208 5208 5208 5209 5209 5209 5210 5210 5210 5210
5511 5503 5495 5488 5479 5468 5459 5453 5448 5441 5434 5426 5418 5411 5406 5399 5392 5384 5377 5371 5367 5362 5356 5350 5346 5341 5336 5331 5326 5322 5316 5311 5305 5300 5294 5289 5283 5278 5272 5267 5261 5255 5250 5245 5240 5236 5232 5228 5224 5221 5218 5214 5210 5207 5205 5203 5201 5200 5199 5198 5197 5196 5196 5196 5196 5196 5196 5197 5197 5198 5199 5199 5200 5200 5201 5202 5202 5203 5203 5203 5204 5204 5204 5204 5204 5204
5507 5500 5492 5485 5480 5473 5464 5453 5446 5440 5433 5425 5417 5410 5404 5398 5391 5384 5377 5370 5364 5358 5352 5346 5341 5336 5331 5326 5321 5317 5312 5306 5301 5296 5290 5285 5280 5275 5269 5264 5259 5253 5248 5244 5239 5234 5230 5226 5223 5219 5216 5213 5210 5207 5204 5202 5200 5199 5198 5197 5196 5195 5194 5194 5194 5194 5194 5195 5195 5195 5195 5196 5196 5196 5197 5197 5198 5198 5198 5198 5198 5199 5199 5199 5199 5199
5504 5497 5490 5482 5473 5467 5462 5455 5446 5438 5430 5422 5415 5408 5401 5394 5388 5381 5375 5368 5362 5356 5351 5345 5339 5334 5329 5323 5318 5313 5308 5303 5297 5292 5287 5282 5277 5272 5267 5262 5257 5252 5247 5242 5238 5233 5229 5225 5221 5218 5215 5212 5209 5206 5204 5201 5199 5198 5196 5195 5194 5194 5193 5193 5192 5192 5192 5192 5192 5193 5193 5193 5193 5193 5193 5193 5193 5194 5194 5194 5194 5194 5193 5193 5193 5193
5506 5497 5489 5481 5473 5464 5457 5451 5445 5438 5430 5420 5412 5405 5397 5389 5383 5376 5369 5363 5358 5353 5348 5342 5335 5330 5325 5320 5314 5309 5305 5300 5294 5289 5285 5279 5274 5269 5264 5260 5255 5250 5246 5241 5236 5232 5228 5224 5220 5217 5214 5211 5208 5205 5203 5200 5198 5197 5195 5194 5193 5192 5191 5191 5191 5190 5190 5190 5190 5190 5190 5190 5190 5190 5190 5190 5190 5190 5190 5190 5190 5189 5189 5189 5188 5188
5502 5494 5486 5479 5472 5464 5456 5448 5443 5439 5433 5424 5413 5403 5395 5387 5380 5374 5367 5360 5354 5348 5343 5337 5331 5324 5319 5314 5309 5305 5301 5296 5291 5285 5281 5276 5271 5266 5262 5257 5253 5248 5244 5239 5235 5230 5226 5223 5219 5216 5213 5210 5207 5204 5201 5199 5197 5195 5194 5192 5191 5190 5190 5189 5189 5189 5189 5188 5188 5188 5188 5188 5188 5187 5187 5187 5187 5186 5186 5186 5186 5186 5185 5185 5184 5184
5497 5490 5483 5475 5468 5460 5451 5443 5434 5427 5422 5415 5408 5400 5393 5385 5378 5372 5365 5359 5352 5345 5338 5334 5329 5322 5315 5309 5304 5299 5295 5292 5287 5282 5277 5272 5267 5263 5259 5254 5250 5246 5241 5237 5233 5229 5225 5221 5218 5214 5211 5208 5205 5203 5200 5197 5195 5193 5192 5190 5189 5188 5188 5187 5187 5186 5186 5186 5186 5186 5185 5185 5185 5184 5184 5184 5183 5183 5183 5183 5182 5182 5181 5181 5181 5180
5494 5487 5479 5471 5463 5454 5445 5436 5427 5418 5411 5405 5399 5393 5387 5381 5375 5368 5361 5355 5348 5342 5335 5329 5324 5319 5314 5307 5301 5294 5290 5286 5282 5278 5274 5269 5264 5260 5256 5251 5247 5243 5239 5235 5231 5227 5224 5220 5216 5213 5210 5207 5204 5201 5198 5196 5193 5191 5190 5188 5187 5186 5186 5185 5185 5184 5184 5183 5183 5183 5182 5182 5181 5181 5181 5180 5180 5180 5179 5179 5179 5178 5178 5177 5177 5177